Wind_Speed
61 58 56 54 50 48 50 51 49 48 48 48 46 45 44 43 42 41 40 39 39 39 40 41 40 40 39 36 34 33 34 34 36 36 32 28 27 28 29 27 25 24 24 25 26 26 23 21 20 18 16 15 15 15 14 14 15 15 16 16 16 15 15 14 15 18 22 21 19 19 19 19 21 22 23 24 24 24 25 26 26 26 26 28 30
61 58 56 56 55 52 52 54 55 54 54 54 52 51 49 47 47 46 44 42 41 40 40 41 41 41 40 38 35 35 35 36 37 38 36 32 30 30 30 28 25 24 25 26 26 25 22 21 20 19 17 16 15 15 14 14 15 16 16 16 17 16 15 15 15 16 20 22 20 20 20 19 20 21 22 22 23 23 24 25 26 26 27 28 30
62 60 58 58 57 56 56 58 59 57 57 57 56 54 52 51 51 50 47 44 42 41 40 41 41 41 40 39 37 36 36 37 39 40 39 36 32 31 31 28 25 24 25 26 27 25 22 20 20 19 18 17 17 16 15 15 15 16 17 17 17 17 16 16 16 16 18 21 22 21 20 20 20 21 21 22 22 23 23 25 25 26 28 29 30
66 64 62 62 63 62 60 61 61 59 59 59 56 53 52 53 54 53 49 45 44 42 41 42 42 41 40 40 38 37 36 38 40 42 43 41 35 33 32 30 27 25 26 27 27 26 23 21 20 19 18 18 18 18 16 16 16 16 16 17 17 16 17 16 17 17 17 19 22 23 21 21 21 22 22 22 22 22 23 25 26 27 28 29 30
68 66 65 65 66 66 64 63 61 59 60 61 56 52 52 53 54 53 49 45 43 43 43 42 42 41 40 40 39 37 35 38 41 43 45 45 39 35 34 32 28 27 26 27 28 27 24 21 20 19 18 18 18 19 18 17 17 16 16 17 17 16 17 17 17 18 18 19 21 22 22 22 22 23 23 24 24 24 25 25 26 28 29 30 31
70 69 68 67 68 67 66 64 62 58 58 61 58 53 51 52 52 52 48 44 44 45 44 44 43 42 40 40 40 38 36 39 43 44 47 46 41 37 36 33 31 28 27 28 29 29 26 22 20 20 19 18 19 19 20 19 18 18 17 17 17 16 16 17 18 18 19 19 20 22 23 23 23 24 25 26 26 26 27 27 27 29 29 30 31
70 70 70 71 71 70 66 63 62 58 56 59 60 56 52 51 52 52 50 48 47 47 46 45 45 43 42 41 41 40 40 42 44 45 47 47 43 40 37 35 33 30 29 28 29 30 28 23 21 21 20 20 20 21 20 20 19 19 19 19 18 18 17 18 18 19 20 20 20 21 22 23 24 25 26 27 28 28 29 28 28 29 30 31 32
70 70 71 72 73 73 70 66 63 61 58 58 60 59 56 52 51 53 53 51 49 48 47 47 47 45 44 42 41 41 42 43 44 46 47 47 44 41 39 36 34 32 31 31 30 31 31 27 22 21 21 21 22 22 22 21 20 20 20 21 20 20 19 19 19 19 20 21 21 22 22 24 25 27 28 29 29 30 30 29 29 30 30 31 33
70 71 73 73 73 74 72 69 66 64 61 59 59 61 60 55 51 52 54 52 51 50 48 47 48 47 45 43 42 42 41 41 43 45 45 45 44 42 39 38 36 34 33 33 32 31 32 31 25 22 22 22 22 23 23 23 22 21 21 22 22 22 21 20 20 21 22 22 22 22 23 24 26 28 29 30 30 30 31 31 30 30 30 31 32
67 69 71 73 73 74 73 70 67 65 63 60 59 60 61 58 53 52 54 54 53 52 49 48 48 48 46 45 43 41 40 39 39 41 42 42 43 42 41 40 38 36 35 35 34 33 33 33 29 25 24 24 23 24 24 24 24 23 23 23 23 24 23 23 22 23 23 23 23 23 23 25 28 30 30 31 31 31 32 32 31 30 30 31 32
63 66 68 69 70 72 73 70 66 63 62 61 60 61 63 62 57 53 54 55 55 54 52 50 50 49 48 46 44 42 40 39 39 40 41 42 43 44 43 43 41 38 36 36 36 36 36 36 32 28 26 25 25 25 25 25 24 24 25 24 24 25 25 25 24 24 24 25 24 25 25 26 29 31 32 32 32 32 32 32 31 31 31 32 32
59 61 63 65 66 68 70 71 67 63 62 61 60 61 63 62 57 53 53 56 57 57 56 53 52 51 50 48 47 44 42 42 42 43 44 44 45 46 46 44 42 40 38 37 37 40 41 39 36 32 29 27 26 26 26 26 25 24 25 26 25 25 27 27 26 25 25 26 25 25 27 28 30 32 34 34 33 33 32 32 31 31 31 32 34
56 57 58 59 61 63 66 69 68 65 64 63 60 60 63 62 57 54 54 56 59 58 57 56 54 53 52 51 50 48 46 45 45 46 46 45 46 48 47 45 44 42 41 39 39 41 44 44 40 36 32 30 28 28 28 27 27 26 25 26 26 26 27 28 28 27 27 27 26 26 28 30 30 32 35 35 34 34 33 32 31 31 31 32 34
54 55 54 55 57 58 59 62 64 65 66 64 60 59 62 60 57 53 52 55 59 59 57 57 56 55 53 52 52 51 50 48 48 49 47 47 49 51 50 48 46 45 43 42 41 42 44 47 44 40 36 33 31 31 30 29 29 28 26 25 25 26 28 29 30 29 28 28 28 27 28 30 31 33 35 35 35 34 33 32 31 31 32 32 33
53 53 53 52 54 56 56 57 59 63 66 65 60 58 58 57 55 54 52 53 56 57 57 58 58 56 54 54 54 53 51 50 51 52 50 49 51 53 52 50 47 47 46 45 44 43 44 47 48 44 40 37 34 34 34 33 32 31 29 27 25 26 28 29 30 31 30 29 29 28 28 30 32 34 35 35 35 35 34 32 31 32 32 32 32
55 54 54 53 53 54 56 58 59 61 64 65 63 60 59 59 55 53 53 53 54 55 56 57 58 58 57 56 56 55 53 51 52 53 52 51 52 51 51 50 48 48 47 46 45 44 43 46 49 48 44 40 37 36 37 37 36 33 31 29 27 26 27 28 30 32 32 31 30 28 28 30 33 34 35 35 35 35 34 32 32 33 33 32 32
59 58 56 56 54 55 56 59 61 63 64 66 65 61 61 62 59 56 55 55 55 55 55 55 56 56 57 56 55 56 54 52 52 53 51 51 51 49 49 49 48 47 46 46 45 44 43 46 50 51 47 42 38 39 40 41 39 37 35 33 30 28 27 28 31 32 33 33 32 29 28 30 33 34 35 35 35 36 35 34 34 34 33 33 34
60 60 59 57 56 56 57 59 62 64 65 67 69 65 62 63 63 62 60 59 57 56 56 57 57 56 56 56 55 56 56 54 53 53 51 50 51 50 49 49 48 47 47 46 45 45 45 46 49 51 46 41 39 41 43 44 43 40 38 37 35 31 29 30 32 32 33 35 33 30 29 30 32 33 34 35 36 36 36 36 35 35 34 34 36
59 61 61 59 57 56 56 58 61 64 65 67 70 70 66 63 63 64 64 62 60 57 56 58 60 59 57 57 56 55 56 55 53 53 53 52 51 51 50 50 49 48 46 45 45 47 47 47 49 50 44 41 41 43 46 48 46 43 42 41 38 34 33 34 35 34 34 35 35 32 30 30 32 33 34 35 36 36 36 36 35 34 34 35 37
60 61 61 60 59 58 57 58 59 62 65 66 69 72 71 68 65 65 65 64 62 60 58 58 61 62 61 60 59 56 55 55 53 52 52 52 51 50 51 51 51 48 46 46 48 50 49 48 50 49 44 43 46 48 49 50 47 45 45 44 41 38 38 39 39 39 37 36 35 33 32 31 32 34 34 35 35 35 35 35 34 35 35 36 37
61 61 62 63 61 60 59 59 59 60 62 64 67 69 71 70 69 68 68 67 66 64 61 59 60 62 64 65 63 59 56 55 54 53 51 50 50 51 52 53 52 49 48 48 50 51 50 49 51 50 47 47 50 52 52 51 49 47 47 46 44 44 43 42 42 43 42 39 36 35 34 34 35 36 37 37 35 33 32 33 35 36 37 38 38
60 61 62 63 64 63 61 60 60 61 61 62 64 66 67 68 69 70 70 71 70 68 66 64 62 61 64 67 67 64 61 58 56 54 53 52 52 53 54 55 53 51 49 49 51 52 52 50 51 52 51 52 54 55 54 53 52 50 48 47 47 48 48 45 43 44 44 42 39 38 38 38 39 39 39 39 38 34 32 34 37 38 39 39 40
59 60 61 62 63 64 64 63 62 62 62 62 63 63 64 64 65 67 70 72 72 71 70 69 67 63 63 66 68 68 66 62 59 56 55 54 55 55 56 56 54 53 53 52 52 54 53 51 52 53 54 54 56 56 55 55 53 51 50 49 49 50 50 48 45 45 44 43 41 40 40 41 41 40 41 43 42 37 35 36 38 39 40 41 40
59 59 59 61 63 64 64 65 65 65 65 64 64 63 64 64 63 64 67 71 72 71 71 72 71 68 66 67 69 69 69 66 62 59 58 58 57 57 58 58 57 56 56 55 54 55 55 53 53 54 55 55 56 57 57 57 56 53 52 51 51 52 51 48 47 47 46 44 43 42 42 42 42 42 43 44 42 39 38 39 40 41 42 41 41
56 58 58 59 60 62 64 65 66 67 67 67 67 65 64 64 63 63 65 68 71 70 69 70 70 69 68 69 69 69 69 68 65 61 60 60 61 60 60 60 59 58 57 56 55 54 56 56 56 56 56 56 57 58 59 59 58 56 54 53 53 54 53 50 49 48 47 46 45 44 44 45 44 44 45 45 43 41 41 42 41 42 42 41 41
51 55 58 59 58 59 60 63 66 67 68 68 69 68 67 66 65 63 64 66 69 69 67 67 67 66 64 64 64 64 66 68 67 64 61 61 63 63 62 61 60 59 57 57 56 55 56 57 57 57 58 58 59 59 59 58 58 59 58 56 55 55 54 53 53 51 48 47 46 46 46 47 46 45 46 46 44 43 44 44 43 43 43 42 42
48 50 53 57 59 58 56 57 60 63 65 66 67 68 69 68 67 66 65 66 68 68 66 65 65 63 59 58 59 60 63 66 68 66 64 63 62 63 63 62 61 60 58 58 58 58 57 57 57 58 60 62 62 62 60 59 59 61 61 60 58 56 55 55 56 54 51 49 48 48 48 48 47 46 47 47 46 45 46 45 44 44 44 43 43
41 46 49 53 57 59 56 53 53 55 58 60 63 65 68 69 69 68 68 67 68 68 67 66 66 63 59 57 58 60 63 66 67 66 66 65 64 64 64 63 62 61 60 59 61 61 61 60 60 60 61 63 63 62 62 61 61 63 63 62 59 57 56 57 58 56 53 51 51 51 51 49 49 49 49 49 47 47 47 46 44 44 44 44 43
30 36 41 46 52 58 59 54 51 50 52 55 58 61 64 68 70 71 71 70 69 69 68 68 67 64 59 58 59 59 62 65 66 66 66 67 67 66 66 65 64 62 61 62 65 65 63 62 62 61 62 63 62 61 60 61 62 63 63 61 59 57 57 58 59 59 56 54 53 54 52 50 50 50 50 50 49 49 49 47 44 44 45 44 43
26 31 35 39 44 52 58 57 53 50 49 50 52 55 57 61 66 70 71 70 69 68 67 68 68 64 60 58 59 60 61 64 65 66 66 67 67 66 65 66 65 64 64 65 67 68 66 63 63 62 63 63 63 63 62 62 63 63 62 60 59 58 58 59 61 61 59 56 56 55 52 50 50 51 51 51 51 50 50 47 45 45 45 45 42
19 19 27 35 41 46 50 52 50 48 47 46 46 48 49 52 58 64 68 67 66 66 66 67 67 65 62 60 60 60 62 64 64 65 65 65 64 63 62 63 63 63 63 64 66 67 67 65 64 64 65 64 65 64 64 63 64 64 63 62 62 61 61 62 63 63 60 58 57 56 53 51 51 52 51 51 51 51 50 48 46 45 45 43 41
33 24 12 21 39 44 44 46 46 44 44 44 43 44 44 45 49 55 60 62 62 62 63 63 64 64 63 63 62 61 62 64 64 64 64 63 62 61 60 60 60 60 61 62 64 66 66 64 63 63 65 66 67 67 66 65 64 65 65 64 63 63 63 65 66 65 63 59 57 55 54 54 53 53 52 53 53 53 52 49 47 45 44 42 40
32 30 21 3 27 37 39 40 41 41 40 40 40 41 41 40 41 45 49 52 54 57 60 61 61 62 62 63 63 62 62 63 63 63 63 63 63 63 63 63 62 62 62 63 64 65 65 64 62 61 63 64 66 67 67 66 65 66 67 66 65 65 66 67 69 68 65 61 57 56 57 56 55 54 54 54 55 56 54 51 47 45 43 42 41
16 16 19 11 12 24 31 34 35 36 37 37 36 36 36 36 36 37 39 42 46 51 55 57 58 59 60 61 62 62 61 61 61 61 62 62 63 63 63 63 63 63 63 63 65 67 67 65 63 63 63 64 65 65 65 65 66 67 68 68 67 68 69 71 71 70 68 64 61 60 60 59 57 56 56 56 57 58 56 51 47 45 44 43 44
7 6 13 19 17 12 20 28 30 32 33 32 32 32 31 31 31 31 31 33 36 40 45 49 51 53 54 55 57 58 58 58 58 59 60 61 61 61 61 61 61 61 62 63 65 67 68 67 65 65 66 67 66 66 65 65 65 65 66 66 67 69 73 74 73 71 69 68 66 64 62 61 60 58 57 58 59 59 57 52 48 46 45 45 46
6 3 2 8 14 12 16 23 28 30 30 28 28 29 29 28 29 29 29 30 31 33 37 40 43 46 48 49 51 53 53 54 55 56 57 58 59 59 59 59 59 59 60 61 63 65 67 66 65 65 66 66 65 65 65 65 65 66 66 66 68 71 75 76 74 71 69 68 68 66 64 62 62 61 61 61 60 59 56 53 49 47 47 47 48
7 4 5 6 7 11 15 19 24 28 28 26 27 29 29 30 31 31 30 30 29 30 33 36 39 41 43 45 46 48 48 50 51 52 54 55 56 57 57 57 57 57 57 58 60 62 63 62 61 62 62 61 59 60 61 62 63 64 63 64 65 68 71 73 73 71 68 65 64 63 61 60 61 62 62 61 59 57 56 54 51 50 49 49 49
6 5 0 5 9 11 13 17 21 25 26 26 28 30 30 31 31 31 31 30 31 32 33 35 36 38 39 40 41 42 44 45 46 48 50 51 53 54 55 55 55 55 55 56 57 58 60 61 61 62 62 60 59 59 59 60 61 61 60 61 63 64 65 67 66 64 62 61 60 59 58 58 58 59 59 58 56 56 55 54 53 52 51 50 50
5 3 2 4 9 12 15 18 21 22 23 24 26 28 30 30 31 32 32 32 32 33 33 34 36 37 37 38 39 40 41 41 43 45 47 48 50 50 51 52 54 54 54 54 55 56 58 60 61 61 61 60 59 58 58 59 61 61 60 61 62 63 62 61 58 56 58 61 61 58 57 56 55 54 55 55 54 53 54 55 54 53 51 51 52
5 4 3 2 5 9 14 19 22 24 23 23 24 26 28 29 31 33 33 33 33 34 34 35 36 37 38 39 40 42 42 42 42 43 45 47 49 50 50 51 53 54 54 55 55 55 56 57 58 59 58 58 58 57 56 57 58 58 58 59 59 59 55 51 49 50 54 58 58 56 54 53 51 51 52 52 51 51 53 54 54 53 53 53 53
6 5 6 5 5 5 9 13 17 21 23 25 27 28 29 30 31 32 31 32 33 34 35 37 38 39 39 40 41 41 42 41 41 41 42 44 47 50 51 52 53 54 54 54 54 54 54 55 55 55 56 56 57 56 55 54 54 54 54 52 51 51 49 45 42 44 47 50 51 51 51 50 50 51 51 51 51 51 53 53 54 55 55 55 55
9 8 7 8 8 8 7 8 10 13 16 19 21 24 27 28 30 31 31 31 31 32 32 35 37 39 40 41 42 41 41 41 42 42 42 42 43 46 48 50 51 52 52 51 51 51 51 51 52 54 54 54 54 54 54 53 52 52 51 50 49 49 47 44 42 42 45 48 50 51 52 53 53 52 51 51 51 51 52 53 54 56 57 57 58
14 12 11 10 10 11 11 10 10 10 11 13 14 16 19 21 23 25 27 29 30 32 32 33 34 34 35 37 39 40 39 37 39 42 43 41 41 43 45 46 47 48 49 48 47 47 47 45 45 46 47 47 46 47 48 50 51 50 50 50 49 46 44 42 42 43 46 49 51 52 53 55 54 53 51 51 51 52 53 54 56 57 58 59 59
18 16 15 14 13 13 13 13 13 13 13 13 14 14 16 17 18 19 21 23 26 29 31 31 30 30 30 31 33 35 33 31 33 38 39 36 36 40 43 44 45 46 47 47 46 45 45 43 42 42 41 41 42 43 45 48 49 47 45 43 43 43 43 45 46 47 48 50 51 52 53 53 52 51 51 50 51 53 54 56 57 59 59 60 60
19 19 19 18 18 17 16 16 16 16 15 15 15 16 16 16 16 17 18 18 20 22 24 25 26 27 28 29 30 32 34 35 37 38 37 35 36 39 42 43 45 45 46 47 47 46 46 46 47 47 47 45 45 46 48 49 48 47 46 45 45 46 47 49 49 50 49 50 50 51 51 50 50 50 50 51 52 54 56 57 58 60 60 59 59
20 20 20 20 21 21 20 20 19 19 18 18 18 18 18 18 18 18 18 18 18 18 19 20 22 23 25 27 28 30 32 33 34 34 33 34 37 38 40 41 43 43 44 46 47 48 48 48 49 50 50 49 47 47 47 48 49 50 50 50 49 48 48 49 50 50 50 49 49 49 49 49 49 50 51 52 54 55 57 58 58 59 58 57 57
22 21 21 21 22 22 23 23 23 22 22 21 21 21 20 21 21 22 21 21 20 19 19 20 20 21 22 23 25 26 28 28 29 29 30 32 33 35 38 40 41 42 43 44 45 46 48 49 50 50 51 50 49 48 47 47 48 48 49 49 48 48 48 48 48 48 48 48 49 49 49 50 50 51 52 53 54 55 55 55 55 55 54 53 53
24 23 23 22 22 23 23 24 25 25 25 25 25 24 24 24 24 25 24 24 23 22 22 23 23 22 22 22 22 23 25 27 28 28 29 30 30 31 32 34 36 37 39 40 41 43 44 45 46 47 48 48 47 47 46 45 44 44 44 45 46 46 46 46 46 47 47 48 49 49 50 51 52 52 52 52 51 50 49 48 48 48 48 47 45
26 26 26 25 25 25 25 25 26 26 26 26 26 27 27 27 28 28 28 27 26 25 25 26 26 26 26 26 25 25 27 28 29 29 29 30 30 29 29 30 31 32 33 35 35 37 38 40 41 42 43 43 44 43 43 43 43 42 43 43 44 44 44 45 45 45 46 47 47 48 49 49 49 49 48 47 45 43 42 41 41 40 39 38 37
23 25 27 28 28 28 28 28 28 28 28 28 28 28 28 28 29 30 30 31 31 30 29 29 29 29 29 29 30 30 30 31 31 31 31 31 31 30 30 30 31 31 32 33 32 33 35 38 39 39 39 40 41 41 41 42 41 41 42 42 43 43 43 43 43 43 43 44 44 45 45 45 45 44 43 42 41 40 39 37 35 35 34 34 34
19 21 24 26 28 29 30 31 31 31 31 31 31 31 31 31 31 31 31 32 32 32 32 32 33 33 33 33 33 34 33 33 33 34 34 34 34 33 33 32 33 33 33 34 34 35 37 38 39 38 38 39 39 40 41 41 40 41 41 41 41 42 41 41 41 41 41 42 42 42 42 42 41 40 39 38 38 37 36 35 34 33 33 33 33
Wind_Direction
227 230 230 228 226 227 230 232 230 226 223 223 222 221 223 225 226 226 226 226 227 227 230 234 235 236 237 238 241 246 251 255 257 258 257 253 253 256 258 263 268 272 276 277 279 281 283 284 286 286 284 284 284 284 284 284 284 282 281 280 280 279 277 274 273 278 285 290 293 295 295 295 296 297 300 302 304 306 307 308 311 314 317 319 321
227 229 231 230 226 225 227 231 230 224 221 219 218 217 218 220 224 224 224 226 226 226 228 230 232 233 235 237 238 242 247 252 255 258 258 254 253 255 257 260 266 271 274 276 278 279 280 282 286 289 289 288 287 286 285 284 283 281 281 281 281 281 279 277 275 275 280 286 290 290 292 293 294 296 299 301 302 304 306 308 311 315 318 320 322
225 227 229 230 228 226 226 229 229 224 221 218 217 217 216 218 222 222 222 224 226 225 226 227 229 231 235 236 237 239 244 250 253 256 257 254 252 254 256 257 262 268 271 274 276 277 279 282 285 289 291 292 290 288 286 284 282 282 282 282 282 282 282 279 277 275 277 283 287 289 291 293 293 295 299 300 302 304 306 309 313 316 319 320 323
226 226 227 228 227 226 226 227 227 225 225 223 221 220 220 220 222 222 221 222 224 224 224 225 228 231 234 238 238 239 242 248 252 253 254 254 251 252 254 253 256 262 266 270 273 275 278 279 282 287 290 292 293 292 290 286 283 282 283 283 284 283 284 282 279 278 278 281 285 289 292 294 294 296 298 300 303 306 307 310 314 317 318 321 323
229 228 227 229 229 228 227 228 228 225 226 227 226 225 226 226 227 224 222 222 224 221 220 224 228 231 234 238 240 242 243 247 251 252 253 254 251 250 251 250 252 258 263 267 270 272 274 276 279 285 287 288 290 292 293 291 287 286 285 285 286 285 285 285 283 282 282 282 285 289 292 294 296 297 298 301 305 307 309 313 316 318 319 322 325
230 230 228 229 231 231 229 229 231 230 228 229 230 232 233 233 233 231 228 228 225 220 218 223 228 230 232 235 239 242 243 246 249 251 253 254 252 249 249 248 249 254 260 264 267 268 270 271 276 281 283 283 284 286 290 292 292 291 289 288 289 289 288 288 287 287 287 286 288 291 294 296 298 299 300 303 306 308 311 316 318 318 320 324 325
229 230 230 230 231 232 231 229 230 231 232 232 232 233 235 234 233 235 236 235 229 221 220 223 226 227 229 233 236 240 242 244 247 249 251 251 249 248 247 245 246 251 256 260 263 265 266 267 271 277 280 280 280 281 284 287 291 293 293 292 292 292 293 292 292 291 291 293 294 296 298 301 302 302 302 305 308 310 313 316 318 318 322 325 325
229 229 231 232 233 233 233 232 231 231 234 235 234 234 234 233 231 232 234 235 232 226 224 224 224 225 227 231 235 240 244 245 245 245 247 246 245 245 246 243 243 248 253 256 259 262 264 264 266 271 276 278 279 281 282 282 285 289 292 294 294 294 295 295 296 295 295 298 301 302 304 307 307 305 306 308 310 311 313 315 317 318 322 325 324
231 230 230 232 234 235 235 235 235 235 236 237 238 237 235 233 233 232 230 230 231 229 228 227 225 225 227 231 236 240 244 246 243 240 240 240 241 243 244 242 241 244 249 253 256 258 261 262 262 264 270 275 278 282 282 281 281 283 287 291 294 294 295 296 297 297 298 301 304 305 308 311 309 308 309 311 312 313 314 315 316 319 323 325 324
234 233 232 232 234 235 236 236 237 238 238 239 240 238 234 233 234 233 229 227 227 228 229 228 226 226 228 231 235 239 241 240 237 234 233 234 238 241 242 240 240 242 246 251 255 256 256 258 259 259 264 271 277 281 283 283 281 280 281 285 290 294 295 296 296 297 299 303 306 307 310 312 310 310 312 313 314 315 315 314 316 320 323 324 324
237 236 235 235 234 235 236 236 236 236 237 239 239 236 234 234 235 236 232 226 225 226 228 228 227 228 230 232 234 237 236 232 230 232 233 234 236 239 240 239 239 241 243 248 254 256 255 254 255 257 260 265 272 278 282 284 284 281 278 279 284 290 294 296 296 296 298 302 306 308 311 311 310 311 313 313 315 316 315 315 316 320 322 322 322
238 238 238 237 237 237 238 236 235 235 235 236 236 235 235 235 238 240 237 230 226 227 228 229 229 230 233 235 236 236 234 229 227 231 233 233 234 237 238 238 239 240 242 244 250 255 257 255 254 256 258 260 266 273 278 283 285 283 280 278 279 285 291 294 295 296 297 299 304 309 310 310 310 312 312 312 314 315 314 315 316 319 321 320 319
237 238 239 239 238 239 240 239 236 234 233 234 236 235 234 235 238 241 240 235 230 229 230 231 233 234 236 238 238 238 235 228 225 228 231 231 232 233 235 237 239 241 241 243 246 251 256 258 257 256 256 256 261 267 273 278 282 285 283 281 280 281 285 290 293 295 296 296 300 306 308 308 310 311 310 310 313 314 313 314 316 318 318 317 316
237 237 238 239 238 237 238 239 238 234 231 232 235 234 231 232 236 237 237 235 232 232 234 235 236 236 237 238 238 239 237 231 225 226 229 229 228 230 232 235 238 240 241 243 245 248 254 259 260 257 255 254 257 262 267 272 277 281 283 284 283 282 282 286 290 293 294 294 297 301 304 306 308 309 308 309 311 312 312 314 316 316 315 313 314
237 238 238 239 239 237 235 236 235 234 231 229 231 232 230 230 232 232 232 232 233 234 236 237 237 237 237 238 238 238 238 235 229 228 230 230 228 227 229 233 236 239 241 243 246 248 251 257 261 259 255 253 254 258 262 267 270 274 279 283 284 283 282 283 287 290 293 294 294 297 300 303 306 307 307 308 309 309 310 313 314 312 311 311 312
238 238 237 238 239 238 235 234 232 232 231 229 229 230 228 228 229 228 228 229 231 233 235 236 237 238 237 237 238 238 238 238 236 234 233 230 228 229 231 233 235 238 240 243 245 247 250 255 260 260 256 252 252 255 258 262 266 269 273 277 279 282 283 283 284 287 291 291 291 294 298 301 304 306 308 307 306 306 307 310 310 308 309 311 311
238 239 238 238 238 237 235 234 232 231 231 230 229 228 226 225 226 227 227 229 231 233 236 237 238 238 237 237 238 239 239 240 240 238 234 229 228 232 235 236 238 239 240 242 244 246 250 254 258 262 258 249 249 253 256 259 263 265 268 271 274 278 281 282 282 285 287 288 289 292 295 299 303 306 307 306 304 303 304 306 306 306 308 309 308
237 237 238 237 237 236 235 234 233 233 232 230 229 229 227 224 225 227 228 230 233 236 239 240 240 240 237 236 237 238 238 240 240 236 232 230 231 234 237 238 241 241 242 243 245 248 250 252 257 262 256 245 245 251 254 257 260 262 265 267 270 275 280 280 280 282 283 285 288 290 292 296 301 303 304 304 302 301 301 302 303 304 307 308 307
238 237 237 237 236 235 234 234 234 234 234 233 231 231 231 229 228 229 230 231 234 237 240 241 241 242 239 236 236 237 236 237 237 232 229 230 232 234 237 239 241 241 242 244 247 249 250 251 256 258 250 241 244 249 251 255 259 261 264 267 270 275 278 278 280 283 284 285 288 289 290 293 296 298 300 301 302 301 299 298 299 302 305 308 308
242 240 238 238 236 234 233 233 233 234 235 235 234 234 235 234 232 232 232 234 237 239 240 240 241 242 241 238 238 238 237 236 236 235 233 233 233 234 237 241 242 242 243 246 249 251 252 253 254 251 244 241 245 247 249 254 258 261 264 268 271 272 273 276 281 285 287 288 289 289 288 288 290 293 295 297 300 302 299 296 298 302 305 307 308
244 243 241 240 239 236 234 233 233 233 234 234 235 236 237 237 237 236 236 238 240 241 242 241 241 242 243 240 239 240 240 238 238 241 242 242 241 240 241 244 245 245 247 249 251 254 255 256 254 249 244 244 246 248 251 255 258 261 264 267 270 270 271 274 279 284 287 288 288 287 286 285 286 288 290 292 296 299 299 298 300 304 305 306 306
243 243 243 241 240 238 237 235 234 234 234 234 234 235 237 239 239 239 240 242 243 244 243 242 242 244 245 242 240 241 242 241 240 242 245 247 248 247 246 246 246 247 249 250 252 252 251 252 254 253 251 250 250 251 254 255 257 260 262 264 267 270 272 273 276 281 285 284 283 284 284 284 284 286 288 289 291 294 298 300 302 304 305 305 306
241 241 242 242 241 240 238 237 236 235 235 235 234 234 235 237 239 240 241 243 245 245 245 243 243 245 246 244 242 242 243 242 241 241 243 245 246 246 246 246 246 247 248 249 251 251 249 248 250 253 257 258 257 257 257 258 260 261 262 264 266 270 272 274 275 278 279 279 280 282 282 283 284 285 286 286 286 291 296 297 299 301 302 303 306
240 240 241 241 241 241 240 239 238 237 235 235 235 235 235 236 238 239 240 241 243 245 245 244 244 246 248 246 245 244 243 242 241 241 242 243 243 243 245 247 247 248 249 249 250 249 248 247 248 250 254 258 261 262 263 263 264 263 263 265 267 269 271 273 273 275 277 280 283 283 282 282 283 284 285 285 287 291 294 293 295 298 298 299 303
240 239 239 239 240 240 240 240 239 238 236 235 235 235 235 236 238 239 239 239 240 242 243 243 244 246 247 247 247 246 244 242 241 240 241 243 243 242 244 248 249 250 251 252 250 248 246 246 248 250 252 255 258 262 264 265 266 265 265 266 267 269 271 273 274 276 279 282 282 281 281 281 281 283 285 285 286 290 291 291 293 296 297 297 301
242 240 238 237 237 238 239 240 241 240 238 237 235 235 235 236 237 238 238 238 238 240 241 242 242 243 245 247 247 246 243 240 240 240 242 243 243 243 244 247 249 250 251 252 252 250 248 247 248 251 254 255 255 258 261 264 266 266 265 265 265 267 269 272 274 276 276 277 277 277 278 280 280 280 281 282 283 287 291 292 292 295 297 297 300
243 241 239 236 235 235 236 239 240 240 240 239 238 237 236 236 236 237 238 238 238 238 239 239 238 240 244 246 244 241 239 239 239 241 242 243 245 245 245 246 248 250 251 252 252 252 252 250 249 250 252 253 255 256 259 261 264 265 265 265 265 266 268 271 274 275 275 275 275 275 276 277 278 279 279 279 282 285 288 290 292 295 297 298 301
242 241 239 236 233 232 232 234 237 238 238 238 238 239 238 237 236 235 236 238 238 237 237 236 236 239 243 244 240 237 237 237 240 242 243 243 245 246 247 247 248 249 251 251 252 252 252 251 251 251 251 252 254 256 257 258 261 264 265 265 265 266 268 270 273 274 274 274 273 273 274 276 279 279 277 277 280 283 286 288 291 295 296 297 300
249 242 239 237 233 230 229 229 231 233 234 235 236 237 239 238 236 235 235 237 238 237 236 235 236 239 243 244 240 238 238 239 242 244 245 246 246 247 248 249 249 250 251 251 250 251 252 252 252 253 254 253 253 255 256 258 260 263 265 266 267 267 268 270 272 272 273 272 271 271 272 275 278 278 276 276 279 282 284 285 289 292 294 296 298
269 250 239 234 232 229 227 227 228 229 230 231 233 234 237 237 236 236 236 238 239 239 237 237 237 239 242 244 243 241 242 243 245 247 248 249 249 249 250 251 251 252 253 252 252 253 254 255 254 254 254 254 253 254 256 257 259 261 263 264 265 266 268 269 270 271 271 270 269 270 271 273 275 276 276 277 278 280 281 283 287 291 294 297 297
317 275 243 228 225 225 225 224 226 228 228 228 230 231 233 234 233 234 236 239 241 241 239 239 239 240 242 244 245 245 245 247 248 248 249 250 251 251 252 253 253 253 253 253 253 254 256 257 257 257 256 256 254 255 257 257 258 258 260 261 262 264 265 266 268 269 269 267 267 268 270 271 273 274 275 276 277 278 279 282 285 289 293 296 297
19 3 315 229 216 218 221 223 226 229 230 231 233 234 235 235 233 233 235 239 241 242 241 240 240 241 242 244 245 246 247 248 249 250 250 250 251 251 251 252 253 253 253 252 253 255 257 258 258 260 260 259 257 258 260 261 260 259 259 260 261 262 263 263 264 266 265 264 265 267 268 270 271 272 273 274 275 276 277 279 283 287 291 295 297
18 10 8 266 211 212 216 220 224 229 232 234 236 238 240 240 238 236 236 237 239 240 241 240 240 241 242 243 244 245 247 248 250 250 250 250 250 251 251 252 252 252 253 254 255 256 257 258 259 260 260 259 259 260 260 261 261 260 260 261 261 261 260 260 261 263 263 263 264 265 266 267 268 270 271 273 273 274 275 278 282 286 290 294 296
2 17 44 72 184 208 216 220 222 225 230 234 238 240 241 241 239 238 237 237 237 238 240 241 241 242 243 243 244 245 246 248 250 251 251 251 251 251 251 251 251 250 251 252 254 256 258 258 259 260 260 260 261 262 262 263 263 263 262 262 261 261 261 259 259 260 261 261 262 263 264 265 265 267 270 271 270 271 274 276 280 284 288 291 293
4 31 78 91 109 160 212 222 220 223 227 230 234 239 240 239 239 239 239 239 239 239 240 242 243 245 246 246 246 247 248 249 250 251 252 252 252 252 252 252 252 251 251 252 253 256 258 259 259 260 260 262 263 264 264 265 265 265 265 264 264 264 264 261 260 259 260 260 260 261 263 264 264 265 267 268 269 270 272 275 279 282 285 288 290
31 315 233 120 118 146 202 216 215 218 222 224 228 232 235 237 238 238 238 239 240 240 241 242 243 245 247 247 248 249 250 250 251 251 252 252 253 253 253 253 253 253 252 252 253 255 257 258 259 260 260 262 264 264 264 264 264 265 265 266 266 267 267 265 262 260 259 260 260 259 261 263 263 263 265 267 268 270 271 274 277 280 283 285 288
37 3 278 236 184 181 196 205 208 212 217 221 226 231 235 238 239 238 238 238 238 238 240 241 243 244 246 247 248 249 250 250 250 250 251 252 253 254 254 254 254 254 254 253 253 254 256 257 259 259 260 261 262 263 264 264 264 265 265 266 268 270 271 269 265 260 258 260 261 259 260 263 263 262 263 266 267 268 270 272 275 278 280 283 286
16 38 26 228 218 206 200 201 206 212 219 226 232 235 237 238 237 237 237 238 238 239 239 240 241 243 244 245 245 246 247 248 248 249 250 250 251 252 253 253 254 254 254 254 254 254 256 256 257 258 260 261 262 263 263 263 264 265 266 267 269 271 272 270 267 261 257 257 258 259 261 263 263 262 263 265 265 265 267 270 273 276 279 283 285
335 13 79 186 211 216 213 210 211 216 223 229 232 234 235 235 234 234 235 237 238 239 240 241 242 242 243 243 243 243 243 244 245 247 247 247 248 248 250 251 251 252 252 252 253 253 254 255 257 258 259 260 261 261 261 262 263 265 266 267 269 270 269 267 266 264 258 255 255 258 261 263 262 261 262 262 262 263 266 270 273 277 280 283 285
302 306 305 222 200 206 212 217 220 222 225 227 229 229 231 233 235 236 237 240 242 242 242 242 242 241 241 241 241 241 241 242 243 245 246 245 244 244 245 247 248 249 250 251 252 252 253 255 256 257 258 259 260 260 260 261 263 265 267 268 267 266 263 262 264 263 259 256 256 258 259 260 261 261 260 259 260 263 267 271 275 279 281 283 284
282 276 272 267 251 223 211 214 219 222 224 228 231 233 235 237 239 238 238 239 242 243 244 244 242 240 239 240 241 241 241 241 242 244 246 247 245 244 244 245 246 247 249 250 250 251 252 253 254 255 256 257 259 259 260 260 261 264 264 260 256 255 256 257 258 259 257 256 256 256 256 258 261 262 261 259 261 265 269 272 276 279 281 283 284
271 264 258 258 259 254 241 225 219 220 221 221 223 227 231 236 240 241 241 241 241 241 241 243 243 242 242 243 243 244 245 246 246 246 246 249 249 246 246 246 247 247 248 249 250 251 252 253 254 255 256 258 260 261 261 259 258 259 258 252 250 253 256 254 253 253 253 252 252 254 256 260 262 263 262 261 263 267 270 273 274 277 279 281 282
270 265 260 256 253 253 252 247 239 234 232 227 225 224 223 224 228 231 233 236 237 238 241 247 249 248 246 246 247 246 246 248 250 249 249 250 252 250 248 248 248 248 247 247 248 250 252 253 254 254 254 255 257 259 259 258 257 257 256 253 253 256 255 252 251 253 253 253 254 256 258 259 260 261 262 264 266 269 271 273 274 277 279 280 281
273 270 267 262 255 251 251 251 248 245 243 240 239 238 235 232 229 227 225 225 227 231 237 244 248 249 248 248 249 247 241 237 243 249 250 249 250 251 251 249 249 248 247 247 247 248 248 248 248 246 247 249 250 251 252 254 255 255 253 250 250 251 251 252 253 255 255 255 256 256 257 259 261 263 265 267 268 270 272 273 275 277 279 280 282
278 275 273 270 264 257 253 251 250 250 249 247 245 245 244 244 243 241 238 235 233 233 235 236 236 237 238 239 241 241 238 237 243 250 250 246 246 251 254 254 252 251 248 247 247 246 246 247 248 249 250 252 252 253 254 255 255 253 252 250 250 250 250 250 251 252 254 256 257 258 260 263 264 265 266 267 268 270 273 274 276 278 279 280 280
283 280 278 275 272 268 264 259 255 252 251 251 250 249 249 249 248 246 245 245 244 243 244 243 242 240 239 236 235 235 235 236 239 241 239 236 239 244 249 253 255 255 254 253 252 251 250 250 252 253 255 255 254 253 254 256 256 257 257 256 255 254 254 253 253 255 259 261 263 264 264 265 265 265 267 268 270 272 274 275 276 278 278 278 277
283 283 282 280 278 275 272 269 265 261 258 256 254 252 252 252 251 250 249 249 249 248 248 248 248 248 247 246 246 245 244 243 241 239 237 236 236 238 241 244 247 250 251 252 253 253 253 253 253 254 256 257 256 255 255 255 257 258 258 256 255 256 257 257 257 259 262 263 264 264 264 265 266 268 269 271 273 274 275 276 276 277 276 276 275
276 278 279 280 280 279 278 276 273 270 267 264 261 259 258 257 255 254 252 251 252 253 252 251 250 249 249 249 249 249 251 252 252 250 249 247 246 246 247 247 248 248 249 249 250 251 251 251 252 252 253 254 254 255 256 257 257 258 258 257 257 258 259 260 261 262 263 264 264 266 267 269 271 272 273 274 275 275 275 275 276 275 275 274 272
273 273 274 275 276 276 277 277 277 275 273 271 268 265 263 262 261 260 259 256 255 255 255 255 254 253 252 251 248 247 248 251 253 254 254 253 252 251 251 250 251 253 254 254 254 255 255 254 254 253 254 254 255 257 259 260 261 263 264 264 263 263 264 264 265 265 266 267 268 269 271 272 273 273 273 273 272 271 272 273 274 273 273 272 269
278 275 274 273 273 273 273 274 275 275 275 274 273 271 269 267 265 264 263 262 260 259 258 258 258 257 256 255 253 252 251 252 254 255 255 255 255 253 252 251 251 252 253 254 254 254 256 258 258 257 257 257 258 259 260 261 263 264 265 266 267 267 267 268 268 268 268 268 269 269 270 270 270 269 268 268 267 267 269 271 273 274 274 273 272
289 283 279 276 275 274 273 272 272 273 273 273 273 272 271 270 269 268 267 266 265 263 261 260 260 260 259 259 258 257 257 256 256 256 255 255 255 255 254 254 253 253 253 253 253 252 254 258 260 260 259 259 259 259 260 261 262 262 263 264 265 267 267 268 268 267 267 267 268 268 269 269 269 268 268 268 268 269 270 272 274 275 275 274 273
Height
5718 5722 5725 5729 5732 5735 5739 5743 5746 5748 5750 5752 5755 5759 5763 5766 5769 5771 5774 5777 5779 5782 5784 5786 5788 5791 5792 5794 5795 5797 5798 5800 5800 5801 5804 5806 5808 5808 5809 5810 5810 5810 5810 5810 5810 5810 5809 5807 5806 5805 5803 5801 5800 5799 5799 5800 5801 5801 5801 5802 5802 5802 5802 5802 5801 5799 5796 5795 5794 5793 5792 5790 5789 5787 5786 5785 5783 5781 5780 5778 5776 5775 5773 5771 5768
5712 5716 5720 5724 5729 5732 5735 5737 5739 5740 5741 5742 5745 5748 5752 5758 5762 5764 5767 5770 5773 5776 5779 5781 5783 5785 5787 5789 5791 5792 5794 5796 5796 5797 5800 5803 5804 5805 5806 5807 5807 5807 5807 5807 5807 5807 5806 5805 5804 5803 5802 5800 5798 5797 5797 5797 5798 5798 5798 5799 5799 5799 5799 5799 5799 5798 5795 5793 5792 5791 5790 5789 5787 5786 5785 5783 5781 5780 5778 5776 5774 5772 5771 5768 5766
5706 5709 5713 5718 5722 5726 5728 5730 5733 5736 5737 5738 5740 5742 5745 5749 5754 5757 5760 5763 5766 5769 5773 5776 5778 5780 5782 5784 5786 5788 5790 5792 5793 5794 5795 5798 5800 5801 5802 5803 5804 5804 5804 5804 5804 5804 5804 5803 5801 5800 5800 5798 5797 5795 5795 5795 5795 5795 5795 5796 5796 5796 5796 5797 5796 5796 5794 5791 5789 5788 5788 5787 5785 5784 5783 5781 5780 5778 5776 5774 5772 5770 5768 5766 5764
5699 5703 5707 5711 5714 5717 5720 5723 5726 5731 5734 5736 5739 5741 5742 5744 5747 5750 5753 5756 5759 5763 5767 5770 5772 5775 5777 5779 5781 5783 5786 5788 5789 5790 5791 5793 5795 5797 5798 5800 5801 5801 5801 5801 5801 5802 5801 5800 5799 5798 5798 5796 5795 5793 5793 5792 5792 5792 5792 5792 5793 5793 5793 5793 5793 5793 5792 5790 5787 5786 5785 5784 5783 5782 5780 5779 5777 5776 5774 5772 5770 5768 5766 5764 5761
5693 5698 5702 5705 5708 5711 5715 5718 5721 5726 5729 5732 5736 5738 5740 5743 5745 5747 5750 5752 5754 5757 5761 5764 5767 5770 5772 5775 5777 5779 5782 5783 5785 5786 5786 5788 5790 5792 5794 5796 5797 5798 5798 5798 5798 5799 5799 5798 5797 5796 5796 5794 5793 5791 5791 5790 5790 5790 5789 5789 5790 5790 5790 5790 5790 5790 5789 5788 5786 5784 5783 5782 5781 5779 5778 5776 5775 5773 5772 5770 5768 5766 5764 5761 5759
5688 5692 5696 5699 5702 5705 5708 5712 5717 5722 5724 5727 5731 5734 5737 5741 5744 5746 5749 5750 5751 5753 5755 5758 5761 5764 5767 5770 5772 5774 5777 5778 5780 5781 5782 5783 5786 5788 5789 5791 5793 5794 5795 5795 5795 5795 5796 5796 5795 5794 5793 5792 5791 5790 5788 5788 5788 5787 5787 5786 5786 5787 5787 5787 5787 5787 5786 5785 5784 5783 5781 5780 5778 5777 5775 5773 5772 5770 5769 5767 5766 5763 5761 5758 5756
5681 5685 5689 5693 5695 5699 5703 5707 5712 5717 5719 5722 5725 5729 5732 5735 5739 5743 5746 5747 5748 5749 5751 5753 5756 5758 5761 5764 5766 5769 5771 5772 5774 5775 5777 5778 5781 5784 5785 5786 5788 5789 5791 5791 5792 5792 5793 5793 5792 5791 5791 5790 5789 5787 5786 5786 5785 5785 5784 5783 5783 5783 5784 5783 5783 5783 5783 5782 5781 5780 5778 5777 5776 5774 5772 5770 5769 5767 5766 5765 5763 5760 5758 5756 5753
5675 5679 5683 5686 5689 5693 5698 5702 5706 5710 5713 5716 5719 5723 5726 5729 5732 5735 5739 5743 5745 5746 5747 5749 5751 5753 5756 5758 5760 5762 5764 5765 5767 5769 5772 5774 5777 5779 5780 5781 5783 5784 5786 5787 5788 5789 5789 5789 5789 5788 5788 5787 5786 5785 5784 5783 5783 5782 5781 5781 5780 5780 5780 5780 5780 5780 5780 5779 5778 5777 5775 5774 5772 5771 5769 5768 5766 5764 5763 5761 5760 5757 5755 5753 5750
5667 5672 5676 5680 5684 5688 5692 5696 5701 5704 5707 5710 5714 5718 5721 5724 5726 5728 5731 5736 5740 5742 5743 5744 5746 5748 5750 5752 5754 5755 5757 5759 5761 5764 5767 5770 5772 5774 5776 5777 5778 5779 5781 5782 5783 5785 5785 5786 5785 5785 5784 5784 5783 5782 5782 5781 5780 5780 5779 5778 5778 5777 5777 5777 5777 5776 5776 5776 5775 5774 5772 5771 5769 5767 5766 5765 5763 5762 5760 5758 5757 5754 5752 5750 5747
5661 5665 5670 5674 5678 5682 5685 5690 5694 5698 5702 5705 5709 5712 5716 5719 5721 5722 5725 5729 5733 5736 5738 5739 5741 5743 5745 5746 5748 5750 5752 5754 5757 5759 5762 5765 5767 5769 5770 5772 5773 5774 5776 5777 5778 5780 5781 5782 5782 5781 5781 5780 5780 5780 5779 5778 5778 5777 5777 5776 5775 5774 5774 5774 5774 5773 5773 5772 5772 5770 5769 5768 5766 5764 5763 5762 5760 5759 5757 5755 5753 5751 5749 5747 5744
5655 5659 5663 5668 5671 5675 5678 5683 5688 5692 5696 5700 5702 5706 5710 5713 5715 5717 5720 5723 5727 5729 5731 5733 5736 5738 5739 5741 5742 5744 5746 5749 5752 5755 5757 5759 5761 5763 5765 5766 5768 5769 5771 5772 5774 5775 5775 5777 5777 5777 5777 5777 5777 5776 5776 5775 5775 5774 5774 5773 5772 5771 5771 5770 5770 5770 5770 5769 5768 5767 5766 5765 5762 5760 5759 5758 5756 5755 5753 5751 5749 5747 5745 5743 5741
5651 5654 5658 5661 5665 5668 5671 5676 5681 5686 5690 5693 5696 5700 5704 5708 5711 5714 5716 5719 5721 5724 5726 5729 5731 5733 5735 5736 5737 5739 5741 5743 5746 5749 5751 5753 5755 5756 5758 5761 5762 5764 5765 5767 5769 5770 5770 5771 5773 5773 5773 5773 5773 5773 5772 5772 5772 5771 5771 5770 5769 5768 5767 5767 5767 5767 5766 5766 5765 5764 5763 5761 5759 5757 5755 5754 5753 5751 5750 5748 5746 5744 5742 5740 5737
5645 5649 5652 5655 5659 5662 5665 5669 5674 5680 5684 5687 5690 5694 5698 5702 5706 5709 5712 5714 5716 5719 5722 5725 5728 5729 5731 5731 5733 5734 5735 5736 5738 5741 5743 5745 5748 5750 5752 5754 5756 5758 5759 5761 5763 5764 5765 5766 5768 5769 5769 5769 5769 5769 5769 5769 5768 5767 5767 5767 5766 5766 5764 5763 5763 5763 5763 5762 5762 5761 5759 5757 5756 5754 5751 5750 5749 5748 5746 5745 5743 5741 5739 5737 5734
5639 5643 5646 5650 5653 5657 5659 5663 5667 5672 5677 5681 5684 5687 5691 5695 5699 5703 5706 5708 5711 5714 5718 5721 5723 5725 5726 5727 5729 5730 5732 5732 5733 5733 5735 5737 5740 5742 5744 5747 5749 5751 5753 5755 5757 5759 5760 5761 5762 5764 5764 5764 5765 5765 5765 5765 5764 5763 5763 5763 5763 5762 5761 5760 5760 5759 5759 5759 5758 5758 5756 5754 5753 5751 5748 5746 5745 5744 5742 5741 5739 5737 5735 5733 5731
5633 5637 5640 5644 5647 5651 5654 5658 5661 5665 5669 5674 5677 5681 5685 5689 5693 5696 5699 5701 5705 5709 5712 5715 5717 5719 5721 5722 5724 5726 5729 5730 5729 5729 5729 5730 5732 5734 5736 5739 5743 5745 5746 5749 5751 5753 5755 5755 5756 5758 5759 5760 5760 5760 5760 5760 5759 5759 5759 5759 5759 5758 5757 5757 5756 5755 5755 5754 5754 5754 5752 5750 5749 5747 5745 5743 5741 5740 5739 5737 5736 5733 5732 5730 5728
5628 5631 5634 5638 5641 5645 5648 5652 5655 5658 5662 5666 5670 5675 5678 5683 5687 5689 5692 5695 5698 5701 5704 5707 5709 5712 5713 5714 5717 5720 5724 5727 5727 5727 5726 5726 5727 5729 5731 5734 5736 5738 5740 5743 5745 5746 5748 5749 5750 5751 5753 5755 5755 5755 5755 5755 5754 5755 5755 5755 5754 5754 5754 5753 5752 5751 5750 5750 5750 5749 5748 5747 5745 5743 5741 5739 5738 5736 5735 5734 5732 5729 5728 5727 5725
5622 5625 5628 5631 5634 5637 5641 5645 5649 5652 5655 5659 5664 5668 5672 5675 5679 5682 5685 5687 5690 5693 5696 5699 5702 5704 5706 5709 5712 5715 5719 5723 5724 5725 5725 5726 5726 5727 5729 5730 5732 5734 5736 5737 5738 5740 5741 5743 5744 5745 5747 5749 5750 5749 5749 5749 5749 5750 5750 5750 5750 5750 5750 5749 5747 5747 5746 5745 5745 5745 5744 5743 5741 5739 5737 5735 5733 5732 5731 5730 5728 5726 5724 5723 5721
5614 5617 5620 5623 5626 5630 5635 5639 5642 5645 5649 5653 5657 5661 5665 5668 5671 5674 5677 5680 5683 5687 5690 5693 5695 5697 5700 5703 5706 5709 5713 5717 5719 5721 5723 5724 5724 5725 5726 5727 5728 5730 5732 5732 5733 5734 5736 5737 5738 5739 5741 5743 5743 5743 5743 5743 5743 5745 5745 5745 5745 5746 5746 5744 5742 5742 5742 5741 5741 5741 5740 5739 5737 5735 5733 5731 5729 5728 5727 5725 5724 5722 5721 5719 5717
5605 5609 5612 5616 5620 5624 5628 5632 5636 5639 5643 5647 5651 5654 5658 5661 5664 5667 5670 5674 5677 5680 5683 5686 5689 5691 5693 5696 5699 5702 5706 5709 5711 5714 5716 5717 5718 5720 5721 5721 5723 5725 5727 5728 5728 5728 5730 5732 5733 5734 5735 5736 5736 5737 5736 5736 5737 5739 5739 5739 5740 5742 5741 5739 5738 5738 5738 5737 5737 5737 5736 5734 5733 5731 5729 5727 5725 5724 5722 5721 5720 5718 5717 5715 5713
5598 5602 5606 5610 5614 5618 5622 5626 5629 5633 5637 5640 5644 5648 5651 5654 5657 5660 5664 5667 5670 5673 5676 5679 5682 5684 5687 5690 5693 5695 5699 5702 5705 5707 5709 5711 5713 5715 5715 5716 5717 5720 5721 5722 5722 5723 5725 5727 5728 5729 5729 5729 5730 5730 5730 5730 5731 5733 5733 5734 5736 5737 5735 5734 5734 5734 5734 5733 5733 5732 5731 5730 5728 5726 5724 5722 5720 5719 5718 5717 5716 5715 5713 5711 5709
5591 5595 5598 5602 5606 5610 5614 5618 5622 5626 5630 5633 5637 5641 5644 5648 5651 5654 5657 5660 5663 5666 5670 5672 5675 5677 5680 5683 5686 5689 5693 5697 5700 5702 5704 5707 5709 5710 5710 5711 5713 5716 5716 5716 5716 5718 5721 5722 5724 5725 5725 5724 5723 5723 5724 5725 5725 5727 5728 5730 5731 5731 5729 5729 5729 5729 5729 5729 5728 5727 5726 5725 5723 5721 5719 5717 5716 5714 5713 5713 5712 5710 5709 5707 5705
5584 5587 5590 5594 5598 5602 5607 5611 5615 5618 5622 5626 5630 5634 5638 5641 5644 5647 5650 5653 5656 5659 5662 5665 5668 5671 5673 5676 5679 5683 5687 5691 5695 5697 5699 5702 5704 5705 5705 5705 5708 5711 5711 5711 5711 5713 5715 5717 5720 5722 5722 5720 5719 5718 5719 5719 5720 5721 5723 5725 5725 5724 5722 5723 5724 5724 5723 5723 5722 5721 5721 5719 5718 5716 5714 5712 5711 5710 5710 5709 5707 5705 5704 5702 5700
5576 5579 5582 5586 5590 5594 5598 5602 5607 5611 5614 5618 5622 5626 5630 5633 5637 5640 5643 5646 5649 5652 5655 5659 5661 5664 5667 5670 5673 5676 5680 5685 5688 5692 5694 5696 5698 5699 5698 5699 5702 5704 5704 5705 5707 5708 5710 5712 5714 5716 5717 5717 5716 5715 5714 5714 5715 5716 5717 5718 5718 5717 5716 5718 5719 5718 5717 5716 5716 5716 5716 5714 5713 5712 5710 5707 5706 5706 5706 5704 5702 5700 5699 5697 5696
5567 5571 5574 5578 5581 5585 5589 5594 5598 5602 5607 5610 5614 5618 5622 5626 5629 5632 5635 5638 5641 5645 5649 5652 5655 5658 5661 5664 5666 5669 5673 5677 5681 5685 5688 5690 5691 5692 5692 5692 5694 5696 5697 5699 5702 5703 5704 5705 5707 5709 5710 5711 5712 5711 5710 5709 5710 5711 5712 5712 5712 5711 5710 5712 5713 5711 5711 5712 5712 5711 5710 5709 5708 5706 5704 5702 5702 5702 5700 5698 5697 5696 5694 5692 5691
5559 5562 5566 5569 5573 5577 5581 5585 5589 5594 5598 5602 5606 5611 5615 5618 5622 5625 5628 5631 5634 5638 5642 5645 5648 5651 5654 5656 5659 5662 5665 5670 5674 5678 5681 5683 5684 5685 5685 5686 5687 5690 5691 5694 5697 5698 5697 5699 5700 5700 5701 5703 5705 5706 5705 5705 5705 5706 5706 5706 5705 5705 5705 5706 5705 5705 5706 5707 5706 5706 5705 5703 5702 5701 5699 5697 5696 5696 5695 5693 5692 5691 5689 5687 5686
5551 5553 5556 5560 5565 5568 5572 5576 5581 5585 5590 5594 5599 5603 5608 5611 5615 5618 5621 5624 5628 5631 5635 5638 5642 5645 5647 5650 5652 5655 5658 5662 5667 5670 5674 5675 5677 5678 5679 5680 5681 5683 5685 5688 5691 5692 5692 5693 5694 5694 5695 5696 5697 5698 5699 5700 5700 5700 5699 5699 5699 5699 5699 5698 5698 5698 5700 5701 5701 5700 5699 5698 5697 5695 5693 5691 5691 5690 5689 5688 5687 5686 5684 5682 5681
5543 5545 5547 5551 5555 5559 5564 5569 5573 5578 5582 5587 5592 5596 5600 5604 5608 5611 5614 5617 5621 5625 5628 5632 5635 5638 5641 5643 5645 5647 5650 5654 5658 5662 5665 5668 5670 5672 5674 5674 5675 5676 5678 5680 5683 5685 5687 5688 5688 5688 5688 5688 5688 5690 5692 5694 5694 5693 5692 5692 5693 5693 5693 5693 5692 5692 5693 5694 5695 5694 5693 5693 5691 5690 5688 5686 5686 5685 5684 5683 5682 5681 5679 5677 5676
5535 5537 5538 5542 5546 5551 5556 5561 5566 5570 5575 5580 5584 5588 5592 5596 5601 5605 5608 5611 5614 5617 5621 5625 5628 5631 5634 5636 5638 5640 5643 5647 5650 5654 5656 5659 5663 5665 5667 5668 5669 5669 5671 5672 5673 5675 5678 5679 5679 5680 5680 5680 5681 5682 5684 5686 5686 5686 5686 5687 5688 5688 5688 5687 5687 5686 5687 5688 5688 5687 5687 5687 5686 5685 5683 5682 5681 5680 5679 5678 5677 5676 5674 5673 5672
5529 5530 5531 5533 5537 5542 5547 5553 5558 5563 5568 5573 5577 5581 5585 5589 5594 5598 5600 5603 5606 5610 5614 5618 5621 5624 5627 5630 5632 5634 5637 5640 5643 5645 5647 5651 5654 5658 5660 5662 5663 5664 5665 5663 5661 5662 5666 5668 5670 5672 5673 5674 5674 5675 5677 5678 5679 5680 5681 5682 5683 5683 5682 5681 5680 5680 5680 5680 5680 5680 5680 5681 5680 5679 5678 5676 5675 5674 5673 5673 5672 5671 5669 5668 5667
5524 5522 5522 5525 5529 5534 5539 5546 5552 5557 5562 5566 5571 5574 5578 5582 5586 5590 5593 5596 5600 5604 5607 5611 5614 5617 5621 5624 5626 5628 5630 5633 5635 5636 5640 5643 5646 5649 5653 5655 5657 5658 5658 5655 5653 5653 5656 5660 5663 5664 5665 5666 5668 5669 5670 5672 5673 5674 5676 5677 5676 5676 5675 5674 5673 5673 5673 5673 5672 5672 5673 5674 5673 5672 5671 5670 5669 5668 5667 5667 5666 5665 5664 5662 5661
5517 5513 5514 5517 5522 5527 5533 5540 5546 5551 5556 5560 5565 5568 5572 5575 5578 5582 5586 5590 5593 5597 5601 5604 5607 5611 5615 5617 5619 5621 5623 5625 5627 5630 5633 5635 5638 5641 5645 5647 5649 5650 5650 5648 5647 5646 5648 5652 5655 5656 5657 5659 5661 5662 5663 5664 5665 5666 5668 5668 5668 5668 5668 5667 5666 5665 5665 5664 5664 5665 5666 5667 5666 5665 5664 5664 5663 5662 5661 5661 5660 5659 5658 5657 5655
5513 5509 5509 5511 5516 5523 5530 5536 5542 5547 5551 5555 5559 5563 5566 5569 5572 5576 5580 5584 5587 5590 5594 5598 5601 5604 5608 5610 5613 5615 5616 5618 5620 5623 5625 5628 5631 5634 5636 5638 5640 5641 5641 5640 5640 5640 5641 5644 5648 5649 5650 5651 5652 5654 5655 5656 5656 5658 5659 5660 5661 5661 5661 5659 5658 5657 5656 5657 5657 5658 5659 5659 5659 5658 5658 5657 5656 5655 5654 5654 5654 5653 5653 5651 5650
5519 5516 5513 5511 5516 5523 5529 5534 5540 5544 5548 5552 5555 5558 5562 5565 5568 5571 5574 5577 5581 5584 5587 5591 5594 5598 5601 5603 5605 5607 5609 5610 5612 5615 5617 5620 5623 5625 5628 5630 5631 5633 5633 5633 5633 5632 5633 5636 5639 5641 5642 5642 5643 5644 5646 5647 5648 5649 5650 5651 5652 5653 5652 5650 5648 5648 5649 5650 5650 5650 5651 5651 5651 5651 5651 5650 5649 5648 5647 5648 5648 5647 5646 5646 5644
5528 5527 5522 5518 5521 5526 5530 5534 5538 5542 5545 5549 5552 5555 5558 5561 5563 5566 5568 5571 5574 5578 5581 5584 5588 5591 5594 5596 5598 5599 5601 5602 5604 5606 5608 5611 5614 5616 5619 5621 5622 5624 5625 5626 5625 5624 5624 5628 5631 5633 5633 5634 5635 5636 5638 5639 5640 5641 5641 5642 5642 5642 5640 5639 5638 5639 5641 5642 5642 5641 5641 5642 5643 5643 5643 5643 5641 5640 5640 5641 5642 5641 5640 5640 5638
5531 5532 5529 5527 5528 5530 5532 5535 5538 5541 5543 5546 5549 5552 5554 5557 5559 5561 5564 5567 5569 5572 5575 5578 5581 5583 5586 5588 5589 5591 5593 5595 5597 5599 5601 5603 5605 5608 5610 5612 5614 5615 5617 5617 5617 5616 5616 5619 5622 5624 5624 5625 5627 5628 5630 5631 5632 5632 5632 5632 5632 5630 5628 5627 5628 5631 5633 5633 5633 5633 5634 5634 5635 5635 5635 5635 5634 5633 5634 5635 5635 5635 5634 5633 5632
5533 5532 5532 5532 5531 5531 5531 5533 5537 5540 5541 5543 5546 5548 5550 5553 5555 5558 5560 5562 5565 5567 5569 5572 5574 5576 5577 5580 5582 5584 5586 5588 5590 5592 5593 5595 5597 5600 5602 5603 5605 5607 5608 5609 5609 5608 5609 5611 5613 5615 5615 5616 5618 5619 5620 5621 5622 5622 5623 5622 5621 5619 5618 5617 5619 5621 5622 5623 5624 5625 5626 5627 5627 5627 5627 5627 5626 5627 5627 5628 5629 5628 5628 5627 5625
5534 5533 5532 5532 5532 5532 5532 5533 5536 5538 5540 5542 5543 5545 5547 5549 5551 5554 5556 5558 5560 5562 5564 5566 5568 5569 5571 5573 5575 5577 5579 5581 5583 5585 5586 5588 5590 5592 5593 5595 5597 5598 5600 5601 5601 5601 5602 5604 5605 5605 5606 5608 5610 5610 5611 5612 5612 5612 5613 5613 5612 5611 5609 5607 5607 5610 5612 5613 5615 5617 5618 5619 5619 5619 5619 5619 5620 5620 5621 5621 5622 5621 5620 5620 5619
5534 5533 5532 5532 5532 5532 5533 5534 5535 5537 5538 5540 5542 5543 5545 5546 5548 5550 5552 5554 5556 5558 5560 5561 5563 5564 5566 5568 5569 5571 5573 5574 5576 5578 5579 5581 5582 5584 5585 5587 5588 5590 5591 5592 5593 5593 5594 5595 5596 5597 5598 5600 5601 5602 5603 5603 5603 5603 5604 5604 5604 5603 5601 5598 5597 5600 5604 5605 5606 5608 5609 5610 5611 5611 5611 5612 5612 5613 5613 5614 5614 5614 5613 5612 5611
5534 5533 5533 5533 5533 5533 5533 5534 5535 5536 5538 5539 5540 5541 5542 5544 5545 5546 5548 5550 5552 5554 5555 5557 5558 5560 5561 5562 5564 5565 5566 5568 5570 5571 5572 5573 5575 5576 5578 5579 5580 5582 5583 5584 5585 5585 5586 5586 5587 5588 5589 5591 5592 5593 5594 5594 5594 5595 5596 5595 5595 5595 5593 5590 5590 5593 5596 5597 5598 5600 5601 5602 5602 5603 5603 5604 5605 5605 5606 5606 5606 5605 5605 5604 5604
5533 5533 5532 5532 5532 5533 5533 5534 5535 5536 5537 5537 5538 5539 5540 5541 5542 5543 5544 5546 5548 5549 5551 5552 5553 5555 5556 5557 5558 5559 5560 5562 5563 5564 5565 5566 5567 5569 5570 5571 5572 5574 5575 5576 5577 5578 5578 5579 5579 5580 5581 5582 5583 5584 5586 5587 5587 5587 5587 5587 5586 5586 5585 5584 5584 5585 5587 5588 5590 5592 5592 5593 5595 5595 5595 5597 5598 5598 5598 5598 5598 5597 5597 5597 5596
5532 5532 5531 5531 5531 5531 5532 5532 5533 5534 5534 5535 5536 5536 5537 5538 5538 5539 5541 5543 5544 5545 5546 5547 5548 5549 5550 5551 5552 5553 5555 5556 5557 5558 5559 5559 5560 5561 5563 5564 5565 5566 5567 5568 5570 5571 5571 5572 5573 5573 5573 5574 5575 5576 5578 5579 5579 5579 5578 5577 5577 5577 5578 5578 5578 5578 5579 5581 5583 5584 5585 5586 5587 5588 5588 5589 5590 5591 5591 5591 5590 5590 5589 5589 5588
5530 5530 5530 5530 5530 5529 5530 5530 5530 5531 5531 5532 5532 5533 5534 5534 5535 5536 5537 5539 5540 5541 5541 5541 5542 5543 5544 5545 5547 5548 5549 5551 5552 5552 5553 5553 5554 5555 5556 5557 5558 5560 5561 5562 5563 5564 5565 5566 5566 5566 5566 5567 5567 5568 5569 5570 5571 5571 5570 5569 5569 5570 5570 5571 5571 5572 5572 5574 5575 5577 5578 5579 5580 5581 5581 5582 5583 5583 5583 5583 5583 5582 5582 5581 5581
5528 5528 5528 5528 5528 5527 5527 5527 5528 5528 5528 5529 5529 5530 5530 5531 5531 5532 5533 5534 5535 5536 5536 5536 5537 5538 5540 5540 5541 5543 5545 5546 5546 5546 5547 5548 5549 5549 5550 5551 5552 5553 5555 5556 5557 5558 5559 5560 5560 5559 5559 5560 5560 5560 5560 5561 5563 5564 5563 5562 5562 5562 5563 5564 5564 5565 5565 5566 5568 5570 5571 5572 5573 5573 5574 5574 5575 5575 5575 5575 5575 5575 5574 5573 5573
5525 5525 5525 5525 5525 5525 5525 5525 5525 5525 5526 5526 5526 5527 5527 5528 5528 5529 5529 5530 5531 5531 5532 5532 5533 5534 5535 5535 5536 5537 5539 5540 5539 5539 5541 5543 5543 5543 5543 5544 5545 5546 5547 5549 5550 5551 5552 5553 5553 5553 5553 5553 5554 5554 5554 5554 5554 5555 5555 5555 5555 5555 5556 5557 5557 5558 5558 5559 5561 5562 5563 5564 5565 5566 5566 5566 5567 5567 5567 5567 5566 5566 5565 5565 5563
5523 5523 5522 5522 5522 5522 5523 5523 5523 5523 5523 5523 5523 5523 5524 5524 5525 5525 5526 5526 5526 5527 5528 5528 5528 5529 5530 5531 5531 5532 5533 5534 5533 5534 5536 5537 5537 5537 5537 5537 5538 5539 5540 5541 5542 5543 5544 5545 5546 5546 5546 5546 5547 5547 5547 5547 5547 5547 5548 5548 5548 5549 5549 5550 5550 5551 5552 5552 5553 5554 5555 5556 5557 5557 5558 5558 5558 5558 5558 5558 5558 5557 5556 5555 5554
5521 5520 5520 5520 5519 5519 5519 5520 5520 5520 5520 5521 5520 5520 5521 5521 5521 5521 5521 5522 5523 5523 5523 5524 5524 5524 5525 5525 5526 5526 5527 5528 5528 5529 5530 5531 5531 5531 5531 5531 5532 5532 5533 5534 5535 5536 5536 5537 5538 5538 5538 5539 5539 5539 5539 5539 5539 5539 5540 5540 5541 5541 5542 5542 5543 5543 5544 5544 5545 5546 5547 5548 5548 5549 5549 5550 5550 5550 5549 5549 5548 5548 5547 5546 5545
5518 5517 5517 5517 5517 5516 5516 5516 5516 5517 5517 5518 5518 5518 5518 5517 5517 5517 5518 5518 5518 5519 5519 5519 5519 5520 5520 5520 5521 5521 5521 5522 5523 5523 5524 5524 5524 5525 5525 5525 5526 5526 5527 5527 5528 5529 5529 5530 5531 5531 5532 5532 5532 5532 5532 5532 5531 5531 5532 5532 5533 5533 5534 5534 5535 5535 5536 5537 5537 5538 5539 5539 5540 5541 5541 5541 5541 5541 5540 5540 5539 5538 5538 5537 5536
5514 5514 5514 5514 5514 5513 5513 5513 5513 5513 5513 5514 5514 5514 5514 5514 5514 5513 5514 5514 5515 5515 5515 5514 5514 5515 5515 5515 5516 5516 5516 5517 5517 5517 5518 5518 5518 5519 5519 5519 5520 5520 5520 5521 5522 5522 5523 5523 5524 5524 5525 5525 5525 5525 5525 5525 5525 5525 5525 5525 5525 5526 5526 5526 5527 5528 5528 5529 5530 5530 5531 5531 5532 5532 5533 5533 5532 5532 5532 5531 5530 5529 5529 5528 5527
5511 5511 5511 5511 5510 5510 5510 5509 5509 5509 5509 5509 5510 5510 5510 5510 5510 5509 5509 5510 5510 5511 5510 5510 5510 5510 5510 5510 5511 5511 5511 5511 5511 5512 5512 5512 5513 5513 5514 5514 5514 5514 5514 5515 5515 5516 5516 5516 5517 5517 5518 5518 5518 5518 5518 5518 5518 5518 5518 5518 5518 5518 5519 5519 5519 5520 5521 5521 5522 5522 5523 5523 5524 5524 5524 5525 5525 5524 5524 5523 5522 5522 5521 5520 5520
5507 5507 5507 5506 5506 5506 5506 5506 5505 5505 5505 5505 5505 5505 5505 5506 5506 5505 5505 5505 5505 5506 5506 5506 5505 5505 5505 5505 5505 5505 5505 5506 5506 5506 5506 5506 5507 5507 5508 5508 5508 5509 5509 5509 5510 5510 5510 5510 5510 5511 5511 5511 5511 5511 5511 5511 5512 5512 5512 5512 5512 5512 5512 5513 5513 5514 5514 5514 5515 5515 5516 5516 5517 5517 5517 5517 5517 5517 5517 5516 5516 5515 5514 5514 5513
5504 5504 5503 5502 5502 5502 5502 5501 5501 5501 5500 5500 5500 5500 5500 5500 5501 5500 5500 5500 5500 5500 5501 5501 5500 5500 5500 5500 5499 5499 5500 5500 5500 5500 5500 5500 5500 5501 5501 5502 5502 5502 5502 5503 5503 5503 5503 5503 5504 5504 5504 5504 5504 5504 5505 5505 5505 5506 5506 5506 5506 5506 5506 5507 5507 5507 5508 5508 5508 5508 5509 5509 5510 5510 5510 5510 5510 5510 5509 5509 5509 5509 5508 5508 5507